Flag for Canada Weather past 2 weeks in Whitehorse, Yukon Territory, Canada

Now
54 °F

Partly sunny.


Feels Like: 51 °F
Forecast: 51 / 65 °F
Wind: 9 mph from Southeast

Location: Withehorse

Current Time: Jul 24, 2014 at 10:06:06 AM

Latest Report: Jul 24, 2014 at 9:00 AM


Visibility: 40 mi

Pressure: 29.88 "Hg

Humidity: 58%

Dew point: 39 °F

Location of WhitehorseLocation

Historic Weather in Whitehorse — Graph

°F

Whitehorse temperature yesterday

Maximum temperature yesterday: 70 °F (at 4:00 PM)
Minimum temperature yesterday: 52 °F (at 6:00 AM)
Average temperature yesterday: 61 °F

Past Weeks' High & Low Weather Summary

 TemperatureHumidityPressure
High75 °F (Jul 15, 8:00 PM)94% (Jul 19, 5:00 AM)30.25 "Hg (Jul 19, 5:00 AM)
Low45 °F (Jul 22, 6:00 AM)27% (Jul 15, 8:00 PM)29.58 "Hg (Jul 19, 7:00 PM)
Average60 °F59%29.96 "Hg
* Reported Jul 9 9:00 AM — Jul 24 9:00 AM, Whitehorse, Weather by CustomWeather, © 2014

Note: Actual official high and low records may vary slightly from our data, if they occured in-between our weather recording intervals... More about our weather records

Advertising

Whitehorse weather history for previous 24 hours

 ConditionsComfort  
Time TempWeatherWind HumidityBarometerVisibility
9:00 AM
Jul 24
54 °FPartly sunny.9 mph58%29.88 "Hg40 mi
8:00 AM52 °FPartly sunny.8 mph62%29.88 "Hg40 mi
7:00 AM52 °FPartly sunny.8 mph62%29.87 "Hg40 mi
6:00 AM52 °FPassing clouds.6 mph62%29.87 "Hg40 mi
5:00 AM52 °FPassing clouds.7 mph62%29.87 "Hg40 mi
4:00 AM52 °FPassing clouds.10 mph62%29.86 "Hg15 mi
3:00 AM52 °FPassing clouds.7 mph62%29.87 "Hg15 mi
2:00 AM54 °FPassing clouds.13 mph58%29.86 "Hg15 mi
1:00 AM54 °FPartly cloudy.10 mph58%29.86 "Hg15 mi
12:00 AM54 °FPartly cloudy.9 mph58%29.86 "Hg40 mi
11:00 PM
Jul 23
57 °FBroken clouds.12 mph51%29.86 "Hg40 mi
10:00 PM59 °FBroken clouds.13 mph48%29.85 "Hg40 mi
9:00 PM61 °FScattered clouds.10 mph45%29.85 "Hg40 mi
8:00 PM63 °FScattered clouds.16 mph39%29.84 "Hg40 mi
7:00 PM64 °FBroken clouds.22 mph40%29.84 "Hg40 mi
6:00 PM68 °FBroken clouds.20 mph33%29.83 "Hg40 mi
5:00 PM68 °FScattered clouds.14 mph30%29.83 "Hg40 mi
4:00 PM70 °FScattered clouds.17 mph29%29.84 "Hg40 mi
3:00 PM68 °FPassing clouds.16 mph28%29.84 "Hg40 mi
2:00 PM68 °FPassing clouds.14 mph28%29.84 "Hg40 mi
1:00 PM68 °FPassing clouds.13 mph28%29.85 "Hg40 mi
12:00 PM66 °FPassing clouds.10 mph30%29.85 "Hg40 mi
11:00 AM63 °FScattered clouds.16 mph45%29.86 "Hg40 mi
10:00 AM63 °FPassing clouds.14 mph49%29.87 "Hg40 mi
Weather by CustomWeather, © 2014

See weather overviewHow to use our weather pages